Location: ????????
(54.9045°N, 39.1041°E)
Time: 03:45:22
(UTC+00:00)

Cosmos 2112 Rocket - Pass Details

Date: 14 April 2024
Orbit: 755 x 785 km, 74.0° (Epoch: 25 May)

Event Time Altitude Azimuth Distance (km) Brightness Sun altitude
Exits shadow 01:39:58 - 206° (SSW) 3,156 6.7 -6.5°
Reaches altitude 10° 01:42:05 10° 207° (SSW) 2,336 6.0 -6.2°
Maximum altitude 01:47:25 86° 296° (WNW) 795 4.1 -5.5°
Drops below altitude 10° 01:52:48 10° 27° (NNE) 2,358 7.4 -4.8°
Sets 01:55:12 0° 28° (NNE) 3,290 8.2 -4.5°
